EW7507 Weather Reports


Display with metric or nautical units.
time (UTC)temp
F
wind
direction
speed
MPH
gust
MPH
rain 1hr
in
rain 24hr
in
rain mn
in
humidity
%
barometer
mb
20260506050112 40 193 2.0 9.0 0.00 0.00 0.00 47 977.9
20260506045112 41 145 3.0 9.0 0.00 0.00 0.00 45 978.1
20260506044613 42 175 2.0 6.0 0.00 0.00 0.00 45 978.0
20260506044120 42 166 2.0 9.0 0.00 0.00 0.00 45 977.9
20260506044114 41 161 4.0 6.0 0.00 0.00 0.00 46 977.9
20260506043119 43 162 3.0 7.0 0.00 0.00 0.00 43 977.9
20260506043113 43 166 4.0 9.0 0.00 0.00 0.00 43 978.0
20260506042112 43 149 5.0 7.0 0.00 0.00 0.00 43 977.9
20260506041621 42 145 2.0 4.0 0.00 0.00 0.00 46 977.9
20260506041613 42 149 4.0 6.0 0.00 0.00 0.00 45 977.9
20260506040613 42 113 2.0 5.0 0.00 0.00 0.00 45 978.0
20260506040111 42 116 2.0 5.0 0.00 0.00 0.00 44 978.1
20260506035611 42 128 2.0 6.0 0.00 0.00 0.00 44 978.0
20260506035110 42 110 3.0 6.0 0.00 0.00 0.00 44 978.0
20260506034613 42 155 2.0 4.0 0.00 0.00 0.00 43 978.0
20260506034110 44 152 0.0 6.0 0.00 0.00 0.00 42 978.0
20260506033613 45 145 3.0 6.0 0.00 0.00 0.00 40 977.9
20260506033111 46 99 2.0 5.0 0.00 0.00 0.00 38 977.9
20260506032610 46 80 0.0 1.0 0.00 0.00 0.00 39 977.8
20260506032111 47 80 0.0 1.0 0.00 0.00 0.00 38 977.8
20260506031611 47 80 0.0 2.0 0.00 0.00 0.00 37 977.8
20260506031110 47 80 0.0 5.0 0.00 0.00 0.00 37 977.7
20260506030618 48 72 1.0 3.0 0.00 0.00 0.00 35 977.7
20260506030611 48 80 0.0 5.0 0.00 0.00 0.00 36 977.7
20260506030236 48 71 0.0 2.0 0.00 0.00 0.00 35 977.7
20260506025737 49 69 0.0 2.0 0.00 0.00 0.00 35 977.7
20260506025236 49 69 0.0 2.0 0.00 0.00 0.00 34 977.5
20260506024736 49 65 0.0 4.0 0.00 0.00 0.00 33 977.6
20260506023611 50 63 0.0 4.0 0.00 0.00 0.00 31 977.5
20260506023109 50 62 1.0 7.0 0.00 0.00 0.00 31 977.5
20260506022611 51 56 4.0 7.0 0.00 0.00 0.00 30 977.5
20260506022109 51 41 3.0 6.0 0.00 0.00 0.00 29 977.5
20260506021611 51 8 1.0 5.0 0.00 0.00 0.00 29 977.4
20260506021108 51 7 0.0 5.0 0.00 0.00 0.00 30 977.3
20260506020610 51 1 0.0 2.0 0.00 0.00 0.00 29 977.4
20260506020106 51 1 0.0 9.0 0.00 0.00 0.00 28 977.5
20260506015608 52 0 2.0 11.0 0.00 0.00 0.00 28 977.5
20260506015234 52 20 1.0 9.0 0.00 0.00 0.00 27 977.5
20260506015116 52 25 2.0 9.0 0.00 0.00 0.00 27 977.5
20260506015109 52 4 1.0 11.0 0.00 0.00 0.00 28 977.5
20260506013608 52 3 2.0 6.0 0.00 0.00 0.00 28 977.4
20260506013117 53 31 1.0 7.0 0.00 0.00 0.00 28 977.4
20260506013108 52 38 2.0 7.0 0.00 0.00 0.00 27 977.4
20260506012106 53 56 1.0 11.0 0.00 0.00 0.00 28 977.4
20260506011607 53 11 6.0 11.0 0.00 0.00 0.00 28 977.4
20260506011106 53 30 0.0 13.0 0.00 0.00 0.00 28 977.5
20260506010616 54 0 4.0 13.0 0.00 0.00 0.00 28 977.4
20260506010608 53 7 9.0 13.0 0.00 0.00 0.00 28 977.5
20260506005617 54 27 0.0 11.0 0.00 0.00 0.00 29 977.5
20260506005609 54 17 4.0 10.0 0.00 0.00 0.00 29 977.4
20260506004113 54 11 1.0 13.0 0.00 0.00 0.00 28 977.6
20260506004106 54 10 7.0 13.0 0.00 0.00 0.00 28 977.6
20260506003112 54 8 0.0 14.0 0.00 0.00 0.00 28 977.8
20260506003105 54 18 8.0 14.0 0.00 0.00 0.00 28 977.7
20260506002107 54 0 1.0 7.0 0.00 0.00 0.00 29 977.8
20260506001607 55 65 2.0 12.0 0.00 0.00 0.00 28 977.7
20260506001113 55 333 4.0 15.0 0.00 0.00 0.00 28 978.0
20260506001106 55 3 6.0 15.0 0.00 0.00 0.00 28 977.9
20260506000106 55 0 2.0 14.0 0.00 0.00 0.00 28 977.9
20260505235607 55 357 6.0 13.0 0.00 0.00 0.00 29 977.9
20260505235104 55 4 5.0 14.0 0.00 0.00 0.00 27 978.0
20260505234607 56 1 8.0 14.0 0.00 0.00 0.00 28 977.9
20260505234104 55 327 0.0 10.0 0.00 0.00 0.00 29 977.9
20260505233605 54 313 3.0 10.0 0.00 0.00 0.00 28 978.0
20260505233112 54 4 1.0 15.0 0.00 0.00 0.00 29 978.1
20260505233104 54 8 0.0 11.0 0.00 0.00 0.00 29 978.1
20260505232104 55 348 6.0 16.0 0.00 0.00 0.00 28 978.3
20260505231604 56 18 7.0 16.0 0.00 0.00 0.00 27 978.2
20260505231104 56 0 4.0 18.0 0.00 0.00 0.00 28 978.1
20260505230605 56 316 10.0 16.0 0.00 0.00 0.00 28 978.2
20260505230104 55 347 2.0 14.0 0.00 0.00 0.00 29 978.3
20260505225605 55 347 2.0 14.0 0.00 0.00 0.00 29 978.3
20260505225103 54 1 1.0 16.0 0.00 0.00 0.00 29 978.4
20260505224605 54 18 7.0 16.0 0.00 0.00 0.00 29 978.3
20260505224102 54 0 3.0 14.0 0.00 0.00 0.00 28 978.5
20260505223604 55 316 6.0 14.0 0.00 0.00 0.00 28 978.5
20260505223103 55 0 5.0 12.0 0.00 0.00 0.00 29 978.4
20260505222605 55 353 4.0 11.0 0.00 0.00 0.00 29 978.5
20260505222102 55 0 4.0 11.0 0.00 0.00 0.00 29 978.5
20260505221605 54 0 4.0 11.0 0.00 0.00 0.00 29 978.6
20260505221102 54 355 5.0 11.0 0.00 0.00 0.00 29 978.6
20260505220604 54 18 2.0 11.0 0.00 0.00 0.00 29 978.5
20260505215603 53 1 3.0 15.0 0.00 0.00 0.00 29 978.7
20260505215101 54 1 7.0 13.0 0.00 0.00 0.00 29 978.7
20260505214603 54 7 7.0 16.0 0.00 0.00 0.00 28 978.7
20260505214102 55 25 7.0 16.0 0.00 0.00 0.00 28 978.7
20260505213604 55 350 8.0 16.0 0.00 0.00 0.00 27 978.7
20260505213102 55 0 3.0 9.0 0.00 0.00 0.00 29 978.8
20260505212603 55 321 3.0 14.0 0.00 0.00 0.00 28 978.8
20260505212101 55 358 2.0 14.0 0.00 0.00 0.00 27 979.1
20260505211603 56 7 5.0 18.0 0.00 0.00 0.00 26 979.1
20260505211108 56 317 5.0 12.0 0.00 0.00 0.00 27 979.1
20260505211100 56 0 9.0 18.0 0.00 0.00 0.00 28 979.1
20260505205611 55 358 2.0 16.0 0.00 0.00 0.00 28 979.2
20260505205603 55 20 8.0 15.0 0.00 0.00 0.00 28 979.2
20260505204603 56 336 6.0 16.0 0.00 0.00 0.00 27 979.2
20260505204100 56 0 11.0 16.0 0.00 0.00 0.00 27 979.2
20260505203601 56 347 7.0 16.0 0.00 0.00 0.00 28 979.3
20260505203100 56 321 5.0 13.0 0.00 0.00 0.00 29 979.3
20260505202600 56 0 9.0 13.0 0.00 0.00 0.00 29 979.4
20260505202108 55 0 9.0 17.0 0.00 0.00 0.00 32 979.4
20260505202100 55 72 4.0 17.0 0.00 0.00 0.00 30 979.3
20260505201101 55 0 9.0 15.0 0.00 0.00 0.00 30 979.5
20260505200601 54 331 9.0 14.0 0.00 0.00 0.00 31 979.4
20260505200100 54 0 9.0 16.0 0.00 0.00 0.00 33 979.5
20260505195559 53 340 9.0 16.0 0.00 0.00 0.00 33 979.6
20260505195059 54 338 4.0 13.0 0.00 0.00 0.00 31 979.5
20260505194607 55 355 4.0 14.0 0.00 0.00 0.00 33 979.5
20260505194559 55 345 6.0 14.0 0.00 0.00 0.00 32 979.5
20260505193601 54 0 4.0 13.0 0.00 0.00 0.00 33 979.5
20260505193059 54 351 6.0 13.0 0.00 0.00 0.00 36 979.6
20260505192601 53 28 6.0 19.0 0.00 0.00 0.00 37 979.6
20260505192058 53 341 10.0 19.0 0.00 0.00 0.00 34 979.6
20260505191600 54 14 8.0 14.0 0.00 0.00 0.00 36 979.6
20260505191058 54 37 8.0 13.0 0.00 0.00 0.00 36 979.6
20260505190601 53 52 1.0 13.0 0.00 0.00 0.00 37 979.6
20260505190059 52 0 9.0 13.0 0.00 0.00 0.00 38 979.7
20260505185559 51 358 6.0 13.0 0.00 0.00 0.00 39 979.7
20260505185059 51 0 4.0 14.0 0.00 0.00 0.00 39 979.7
20260505184559 51 18 7.0 14.0 0.00 0.00 0.00 41 979.8
20260505184057 49 331 5.0 12.0 0.00 0.00 0.00 41 979.7
20260505183606 49 247 4.0 12.0 0.00 0.00 0.00 42 979.8
20260505183558 49 347 4.0 12.0 0.00 0.00 0.00 42 979.8
20260505182557 49 314 6.0 12.0 0.00 0.00 0.00 41 979.8
20260505182056 49 0 5.0 14.0 0.00 0.00 0.00 43 979.8
20260505181559 49 307 7.0 14.0 0.00 0.00 0.00 43 979.9
20260505181057 49 10 6.0 10.0 0.00 0.00 0.00 48 979.9
20260505180558 48 338 4.0 10.0 0.00 0.00 0.00 47 979.9
20260505180058 48 338 3.0 10.0 0.00 0.00 0.00 50 979.9
20260505175558 48 344 1.0 9.0 0.00 0.00 0.00 51 980.0
20260505175056 47 344 6.0 12.0 0.00 0.00 0.00 51 980.0
20260505174558 47 316 5.0 12.0 0.00 0.00 0.00 52 980.0
20260505174056 47 289 3.0 11.0 0.00 0.00 0.00 50 980.0
20260505173556 48 338 7.0 11.0 0.00 0.00 0.00 51 980.0
20260505173057 48 300 2.0 11.0 0.00 0.00 0.00 51 979.9
20260505172558 48 343 5.0 6.0 0.00 0.00 0.00 52 979.9
20260505172105 48 355 4.0 7.0 0.00 0.00 0.00 53 979.9
20260505172058 48 333 3.0 7.0 0.00 0.00 0.00 53 979.9
20260505171103 47 337 5.0 11.0 0.00 0.00 0.00 56 979.8
20260505171055 47 20 2.0 11.0 0.00 0.00 0.00 55 979.9
20260505170054 47 286 6.0 10.0 0.00 0.00 0.00 56 979.9
20260505165603 47 350 6.0 9.0 0.00 0.00 0.00 58 979.9
20260505165556 47 343 3.0 9.0 0.00 0.00 0.00 58 979.9
20260505165220 47 298 4.0 7.0 0.00 0.00 0.00 58 979.9
20260505164721 47 353 5.0 7.0 0.00 0.00 0.00 57 979.9
20260505163557 47 316 2.0 10.0 0.00 0.00 0.00 56 979.9
20260505163054 48 338 5.0 10.0 0.00 0.00 0.00 57 979.9
20260505162555 48 8 6.0 9.0 0.00 0.00 0.00 58 980.0
20260505162053 47 27 1.0 11.0 0.00 0.00 0.00 60 979.9
20260505161554 46 23 4.0 11.0 0.00 0.00 0.00 61 979.9
20260505161054 46 0 5.0 6.0 0.00 0.00 0.00 62 979.8
20260505153052 46 355 3.0 7.0 0.00 0.00 0.00 63 979.9
20260505152554 46 303 1.0 7.0 0.00 0.00 0.00 64 980.0
20260505152052 45 0 3.0 7.0 0.00 0.00 0.00 65 980.0
20260505151554 45 0 2.0 5.0 0.00 0.00 0.00 68 980.0
20260505151100 44 286 3.0 4.0 0.00 0.00 0.00 72 980.0
20260505151052 44 313 2.0 5.0 0.00 0.00 0.00 70 980.0
20260505140552 39 344 3.0 6.0 0.00 0.00 0.00 81 980.1
20260505124557 39 321 0.0 0.0 0.00 0.00 0.00 81 979.5
20260505124549 39 314 4.0 5.0 0.00 0.00 0.00 81 979.4
20260505123550 39 321 0.0 0.0 0.00 0.00 0.00 81 979.4
20260505123049 39 321 0.0 0.0 0.00 0.00 0.00 81 979.3
20260505122551 39 354 0.0 0.0 0.00 0.00 0.00 81 979.3
20260505122047 39 0 0.0 0.0 0.00 0.00 0.00 81 979.3
20260505121549 39 0 0.0 0.0 0.00 0.00 0.00 80 979.3
20260505121048 39 0 0.0 5.0 0.00 0.00 0.00 80 979.3
20260505120548 39 0 0.0 5.0 0.00 0.00 0.00 80 979.2
20260505120048 39 3 3.0 5.0 0.00 0.00 0.00 80 979.2
20260505115557 39 334 0.0 0.0 0.00 0.00 0.00 80 979.3
20260505115549 39 0 0.0 1.0 0.00 0.00 0.00 80 979.2
20260505114550 39 7 0.0 0.0 0.00 0.00 0.00 80 979.3
20260505114048 39 7 0.0 1.0 0.00 0.00 0.00 80 979.2
20260505113548 39 7 0.0 1.0 0.00 0.00 0.00 80 979.1
20260505113048 39 7 0.0 6.0 0.00 0.00 0.00 80 979.1
20260505112556 39 0 2.0 4.0 0.00 0.00 0.00 80 979.1
20260505112548 39 7 3.0 6.0 0.00 0.00 0.00 80 979.0
20260505111555 40 4 0.0 0.0 0.00 0.00 0.00 80 979.1
20260505111547 39 0 1.0 4.0 0.00 0.00 0.00 80 979.0
20260505110548 40 3 0.0 2.0 0.00 0.00 0.00 79 979.1
20260505101546 40 0 7.0 13.0 0.00 0.00 0.00 76 979.1
20260505101052 41 7 9.0 13.0 0.00 0.00 0.00 75 978.8
20260505101045 40 7 6.0 13.0 0.00 0.00 0.00 76 979.1
20260505100045 41 0 6.0 13.0 0.00 0.00 0.00 75 978.8
20260505095547 41 0 8.0 13.0 0.00 0.00 0.00 74 978.7
20260505095044 41 23 6.0 13.0 0.00 0.00 0.00 73 978.8
20260505094546 41 0 6.0 11.0 0.00 0.00 0.00 73 978.7
20260505094044 42 0 5.0 10.0 0.00 0.00 0.00 72 978.6
20260505093554 42 1 3.0 10.0 0.00 0.00 0.00 70 978.7
20260505093546 42 7 2.0 6.0 0.00 0.00 0.00 71 978.6
20260505093208 42 65 0.0 10.0 0.00 0.00 0.00 68 978.6
20260505092044 42 51 5.0 10.0 0.00 0.00 0.00 67 978.6
20260505091546 42 20 3.0 9.0 0.00 0.00 0.00 67 978.6
20260505091042 42 3 4.0 9.0 0.00 0.00 0.00 66 978.6
20260505090544 42 41 3.0 12.0 0.00 0.00 0.00 66 978.6
20260505090044 42 38 5.0 12.0 0.00 0.00 0.00 64 978.6
20260505085552 42 114 7.0 13.0 0.00 0.00 0.00 61 978.6
20260505085545 42 0 3.0 13.0 0.00 0.00 0.00 63 978.6
20260505084544 42 51 3.0 12.0 0.00 0.00 0.00 60 978.7
20260505084043 42 0 4.0 13.0 0.00 0.00 0.00 59 978.6
20260505083544 42 45 7.0 13.0 0.00 0.00 0.00 58 978.6
20260505083042 42 59 0.0 6.0 0.00 0.00 0.00 56 978.5
20260505082545 42 41 1.0 7.0 0.00 0.00 0.00 55 978.5
20260505082050 42 59 4.0 10.0 0.00 0.00 0.00 55 978.4
20260505082042 42 73 4.0 10.0 0.00 0.00 0.00 55 978.5
20260505081042 42 68 3.0 6.0 0.00 0.00 0.00 55 978.4
20260505080543 42 85 1.0 4.0 0.00 0.00 0.00 54 978.4
20260505080042 42 117 0.0 0.0 0.00 0.00 0.00 54 978.3
20260505075543 42 117 0.0 3.0 0.00 0.00 0.00 54 978.3
20260505075041 42 117 0.0 3.0 0.00 0.00 0.00 54 978.3
20260505074543 42 117 2.0 3.0 0.00 0.00 0.00 53 978.3
20260505074042 42 116 0.0 3.0 0.00 0.00 0.00 52 978.2
20260505073542 42 116 0.0 3.0 0.00 0.00 0.00 52 978.2
20260505073042 42 114 0.0 0.0 0.00 0.00 0.00 51 978.0
20260505072542 42 114 0.0 0.0 0.00 0.00 0.00 51 978.0
20260505071542 42 113 0.0 5.0 0.00 0.00 0.00 50 978.1
20260505071040 43 135 3.0 7.0 0.00 0.00 0.00 50 977.9
20260505070542 43 165 4.0 9.0 0.00 0.00 0.00 49 977.8
20260505070048 43 103 3.0 5.0 0.00 0.00 0.00 50 977.9
20260505070041 43 164 4.0 9.0 0.00 0.00 0.00 49 977.8
20260505065040 43 124 2.0 4.0 0.00 0.00 0.00 51 977.9
20260505064541 43 121 1.0 4.0 0.00 0.00 0.00 50 977.9
20260505064039 43 114 0.0 2.0 0.00 0.00 0.00 52 977.9
20260505063707 43 111 1.0 2.0 0.00 0.00 0.00 49 977.8
20260505063548 43 111 0.0 3.0 0.00 0.00 0.00 50 977.7
20260505063541 43 113 0.0 3.0 0.00 0.00 0.00 50 977.9
20260505062040 44 110 0.0 4.0 0.00 0.00 0.00 49 977.8
20260505061548 44 102 2.0 5.0 0.00 0.00 0.00 48 977.8
20260505061540 44 110 1.0 5.0 0.00 0.00 0.00 48 977.7
20260505060541 44 107 0.0 0.0 0.00 0.00 0.00 46 977.7
20260505060045 45 80 0.0 5.0 0.00 0.00 0.00 45 977.5
20260505060038 45 94 0.0 4.0 0.00 0.00 0.00 45 977.6
20260505055038 45 104 3.0 7.0 0.00 0.00 0.00 44 977.6
20260505054704 45 113 2.0 5.0 0.00 0.00 0.00 43 977.5
20260505054548 45 99 1.0 7.0 0.00 0.00 0.00 43 977.6
20260505054541 45 106 3.0 7.0 0.00 0.00 0.00 44 977.6
20260505053038 46 72 2.0 4.0 0.00 0.00 0.00 43 977.5
20260505052539 46 72 2.0 4.0 0.00 0.00 0.00 41 977.4
20260505052045 47 71 0.0 1.0 0.00 0.00 0.00 40 977.4
20260505052037 46 71 2.0 4.0 0.00 0.00 0.00 41 977.5
20260505051703 47 71 0.0 1.0 0.00 0.00 0.00 40 977.5
20260505051203 47 71 0.0 1.0 0.00 0.00 0.00 41 977.4
20260505050705 47 71 0.0 3.0 0.00 0.00 0.00 39 977.3